Weather History for KISQ - December, 2013

Change the Weather History Date:

Sunday, December 29, 2013

  Actual Average Record
Temperature  
Mean Temperature 17 °F -  
Max Temperature 32 °F 26 °F 46 °F (1979)
Min Temperature 1 °F 8 °F -18 °F (1976)
Degree Days  
Heating Degree Days 48    
Moisture  
Dew Point 11 °F    
Average Humidity 80    
Maximum Humidity 99    
Minimum Humidity 64    
Precipitation  
Precipitation 0.00 in - - ()
Sea Level Pressure  
Sea Level Pressure 29.88 in    
Wind  
Wind Speed 14 mph (NNW)    
Max Wind Speed 24 mph    
Max Gust Speed 32 mph    
Visibility 6 miles    
Events Snow    
Averages and records for this station are not official NWS values.
T = Trace of Precipitation, MM = Missing Value Source: NWS Daily Summary

Daily Weather History Graph

Daily Weather History Graph

Search for Another Location

Airport or City:

Trip Planner

Search our weather history database for the weather conditions in past years. The results will help you decide how hot, cold, wet, or windy it might be!

Date:

Astronomy

Dec. 29, 2013 Rise Set
Actual Time 8:26 AM EST 5:07 PM EST
Civil Twilight 7:51 AM EST 5:42 PM EST
Nautical Twilight 7:13 AM EST 6:20 PM EST
Astronomical Twilight 6:37 AM EST 6:56 PM EST
Moon 5:04 AM EST (12/29) 2:49 PM EST (12/29)
Length of Visible Light 9h 50m
Length of Day
8h 41m
Waning Crescent, 11% of the Moon is Illuminated
Dec 29
Waning Crescent
Jan 1
New
Jan 7
First Quarter
Jan 15
Full
Jan 24
Last Quarter

Hourly Weather History & Observations

Time (EST) Temp. Windchill Dew Point Humidity Pressure Visibility Wind Dir Wind Speed Gust Speed Precip Events Conditions
12:15 AM 32.4 °F 26.9 °F 31.5 °F 96% 29.72 in 5.0 mi North 5.8 mph - N/A   Overcast
12:34 AM 32.2 °F 25.8 °F 31.5 °F 97% 29.70 in 5.0 mi North 6.9 mph - N/A   Overcast
12:54 AM 32.2 °F 26.7 °F 31.6 °F 98% 29.70 in 5.0 mi North 5.8 mph - N/A   Overcast
1:15 AM 32.2 °F 26.7 °F 31.6 °F 98% 29.70 in 4.0 mi NNW 5.8 mph - N/A   Overcast
1:34 AM 32.0 °F 26.4 °F 31.6 °F 99% 29.70 in 4.0 mi NNW 5.8 mph - N/A   Overcast
1:55 AM 32.0 °F 24.2 °F 31.6 °F 99% 29.70 in 4.0 mi North 9.2 mph - N/A   Overcast
2:15 AM 30.7 °F 20.4 °F 29.3 °F 94% 29.72 in 4.0 mi NNW 13.8 mph 23.0 mph N/A   Overcast
2:34 AM 29.3 °F 17.0 °F 27.9 °F 94% 29.72 in 4.0 mi North 18.4 mph 24.2 mph N/A   Overcast
2:55 AM 27.5 °F 13.9 °F 25.5 °F 92% 29.73 in 3.0 mi North 20.7 mph 25.3 mph N/A   Overcast
3:14 AM 26.4 °F 11.8 °F 23.9 °F 90% 29.74 in 3.0 mi North 23.0 mph 28.8 mph N/A   Overcast
3:34 AM 25.3 °F 11.0 °F 22.5 °F 89% 29.73 in 3.0 mi NNW 20.7 mph 27.6 mph N/A Snow Light Snow
3:55 AM 24.3 °F 8.6 °F 20.5 °F 85% 29.74 in 10.0 mi North 24.2 mph 31.1 mph N/A   Overcast
4:14 AM 23.7 °F 8.2 °F 19.6 °F 84% 29.74 in 10.0 mi North 23.0 mph 29.9 mph N/A   Overcast
4:35 AM 23.0 °F 8.7 °F 18.3 °F 82% 29.76 in 10.0 mi North 18.4 mph 27.6 mph N/A   Overcast
4:55 AM 22.6 °F 9.2 °F 18.5 °F 84% 29.78 in 10.0 mi North 16.1 mph 25.3 mph N/A   Overcast
5:14 AM 22.6 °F 9.2 °F 18.9 °F 85% 29.79 in 10.0 mi North 16.1 mph 23.0 mph N/A   Overcast
5:35 AM 22.1 °F 8.5 °F 18.5 °F 86% 29.80 in 10.0 mi North 16.1 mph 25.3 mph N/A   Overcast
5:55 AM 21.7 °F 6.7 °F 18.1 °F 86% 29.80 in 10.0 mi NNW 19.6 mph 27.6 mph N/A   Overcast
6:14 AM 21.0 °F 6.6 °F 17.8 °F 87% 29.80 in 10.0 mi North 17.3 mph 28.8 mph N/A   Overcast
6:35 AM 20.8 °F 5.9 °F 17.6 °F 87% 29.81 in 10.0 mi North 18.4 mph 25.3 mph N/A   Overcast
6:54 AM 20.3 °F 4.4 °F 16.7 °F 86% 29.82 in 10.0 mi NNW 20.7 mph 27.6 mph N/A   Overcast
7:15 AM 19.8 °F 4.5 °F 15.8 °F 85% 29.83 in 10.0 mi NNW 18.4 mph 28.8 mph N/A   Overcast
7:34 AM 19.2 °F 2.2 °F 14.4 °F 81% 29.83 in 10.0 mi NNW 23.0 mph 32.2 mph N/A   Overcast
7:55 AM 18.5 °F 3.8 °F 13.5 °F 81% 29.84 in 5.0 mi North 16.1 mph 32.2 mph N/A Snow Light Snow
8:14 AM 17.8 °F 1.5 °F 12.6 °F 80% 29.85 in 5.0 mi North 19.6 mph 27.6 mph N/A Snow Light Snow
8:34 AM 17.6 °F 0.1 °F 12.7 °F 81% 29.86 in 5.0 mi NNW 23.0 mph 31.1 mph N/A Snow Light Snow
8:55 AM 17.4 °F 1.9 °F 11.8 °F 79% 29.87 in 7.0 mi NNW 17.3 mph 25.3 mph N/A Snow Light Snow
9:14 AM 17.2 °F 0.8 °F 11.7 °F 79% 29.87 in 10.0 mi NNW 19.6 mph 27.6 mph N/A Snow Light Snow
9:34 AM 17.1 °F 0.6 °F 11.3 °F 78% 29.88 in 7.0 mi North 19.6 mph 28.8 mph N/A Snow Light Snow
9:55 AM 17.1 °F 0.6 °F 11.3 °F 78% 29.88 in 7.0 mi NNW 19.6 mph 25.3 mph N/A Snow Light Snow
10:14 AM 16.7 °F 1.5 °F 11.1 °F 79% 29.88 in 7.0 mi North 16.1 mph 24.2 mph N/A Snow Light Snow
10:35 AM 16.7 °F -0.3 °F 10.8 °F 77% 29.88 in 10.0 mi NNW 20.7 mph 25.3 mph N/A Snow Light Snow
10:55 AM 16.7 °F 1.5 °F 10.2 °F 76% 29.88 in 10.0 mi North 16.1 mph 23.0 mph N/A Snow Light Snow
11:14 AM 16.5 °F 1.3 °F 10.0 °F 76% 29.88 in 7.0 mi North 16.1 mph 25.3 mph N/A Snow Light Snow
11:35 AM 16.3 °F 2.1 °F 11.8 °F 82% 29.88 in 1.2 mi NNW 13.8 mph 20.7 mph N/A Snow Light Snow
11:54 AM 15.8 °F -0.2 °F 11.3 °F 82% 29.88 in 0.8 mi NW 17.3 mph 25.3 mph N/A Snow Light Snow
12:15 PM 15.6 °F -0.9 °F 9.9 °F 78% 29.87 in 2.0 mi NW 18.4 mph 27.6 mph N/A Snow Light Snow
12:35 PM 15.3 °F -0.9 °F 8.1 °F 73% 29.87 in 1.8 mi NNW 17.3 mph 31.1 mph N/A Snow Light Snow
12:54 PM 15.3 °F 0.2 °F 7.9 °F 73% 29.88 in 2.0 mi NNW 15.0 mph 26.5 mph N/A Snow Light Snow
1:15 PM 15.1 °F -0.6 °F 8.8 °F 76% 29.88 in 1.2 mi NNW 16.1 mph 27.6 mph N/A Snow Light Snow
1:34 PM 15.3 °F 2.0 °F 7.9 °F 73% 29.88 in 4.0 mi NNW 11.5 mph 24.2 mph N/A Snow Light Snow
1:54 PM 15.4 °F -1.1 °F 6.6 °F 68% 29.88 in 3.0 mi NNW 18.4 mph 27.6 mph N/A   Haze
2:15 PM 14.7 °F -3.4 °F 5.7 °F 68% 29.88 in 4.0 mi NW 21.9 mph 29.9 mph N/A Snow Light Snow
2:34 PM 14.9 °F -2.7 °F 4.8 °F 64% 29.89 in 7.0 mi NNW 20.7 mph 28.8 mph N/A   Overcast
2:55 PM 14.0 °F -4.3 °F 3.7 °F 64% 29.89 in 4.0 mi NW 21.9 mph 32.2 mph N/A   Haze
3:15 PM 13.3 °F -2.4 °F 5.9 °F 72% 29.90 in 1.8 mi NNW 15.0 mph 27.6 mph N/A Snow Light Snow
3:34 PM 13.1 °F -3.1 °F 3.9 °F 67% 29.91 in 10.0 mi NNW 16.1 mph 26.5 mph N/A   Mostly Cloudy
3:55 PM 12.9 °F -5.7 °F 2.7 °F 64% 29.92 in 10.0 mi NNW 21.9 mph 28.8 mph N/A   Mostly Cloudy
4:14 PM 12.0 °F -4.5 °F 2.3 °F 65% 29.93 in 10.0 mi NNW 16.1 mph 21.9 mph N/A   Scattered Clouds
4:34 PM 11.5 °F -3.4 °F 2.3 °F 67% 29.94 in 10.0 mi NNW 12.7 mph 25.3 mph N/A   Scattered Clouds
4:55 PM 10.4 °F -7.2 °F 1.8 °F 68% 29.95 in 10.0 mi NNW 17.3 mph 25.3 mph N/A   Scattered Clouds
5:14 PM 10.4 °F -4.8 °F 3.7 °F 74% 29.96 in 7.0 mi NNW 12.7 mph 24.2 mph N/A   Mostly Cloudy
5:34 PM 10.2 °F -3.5 °F 4.3 °F 77% 29.97 in 7.0 mi NNW 10.4 mph 18.4 mph N/A   Overcast
5:54 PM 10.0 °F -5.2 °F 1.4 °F 68% 29.97 in 10.0 mi NNW 12.7 mph 21.9 mph N/A   Overcast
6:14 PM 10.0 °F -5.9 °F 1.6 °F 69% 29.98 in 10.0 mi NNW 13.8 mph 20.7 mph N/A   Overcast
6:35 PM 9.9 °F -4.0 °F 3.4 °F 75% 29.98 in 4.0 mi NNW 10.4 mph 17.3 mph N/A Snow Light Snow
6:54 PM 9.5 °F -1.5 °F 4.3 °F 79% 29.99 in 4.0 mi NW 6.9 mph - N/A Snow Light Snow
7:14 PM 9.5 °F -3.5 °F 5.0 °F 82% 29.98 in 3.0 mi NNW 9.2 mph - N/A Snow Light Snow
7:35 PM 9.3 °F -0.5 °F 4.5 °F 81% 29.99 in 7.0 mi NNW 5.8 mph - N/A   Overcast
7:54 PM 9.0 °F -3.2 °F 3.4 °F 78% 30.00 in 10.0 mi NW 8.1 mph - N/A   Mostly Cloudy
8:15 PM 9.0 °F -0.9 °F 3.6 °F 79% 30.01 in 5.0 mi WNW 5.8 mph - N/A Snow Light Snow
8:35 PM 8.4 °F -1.6 °F 4.1 °F 83% 30.01 in 4.0 mi WNW 5.8 mph - N/A Snow Light Snow
8:54 PM 8.8 °F -1.1 °F 5.0 °F 85% 30.02 in 1.5 mi WNW 5.8 mph - N/A Snow Light Snow
9:15 PM 6.8 °F -5.9 °F 2.5 °F 82% 30.02 in 3.0 mi West 8.1 mph - N/A Snow Light Snow
9:34 PM 6.1 °F -8.7 °F 1.6 °F 82% 30.03 in 4.0 mi West 10.4 mph - N/A Snow Light Snow
9:54 PM 4.8 °F -10.2 °F 0.1 °F 81% 30.03 in 4.0 mi West 10.4 mph - N/A Snow Light Snow
10:15 PM 3.9 °F -12.2 °F -0.9 °F 80% 30.03 in 4.0 mi West 11.5 mph - N/A Snow Light Snow
10:34 PM 3.2 °F -11.3 °F -1.7 °F 80% 30.04 in 7.0 mi West 9.2 mph - N/A Snow Light Snow
10:54 PM 2.8 °F -12.7 °F -1.8 °F 81% 30.04 in 10.0 mi West 10.4 mph - N/A   Mostly Cloudy
11:15 PM 2.3 °F -14.2 °F -2.4 °F 81% 30.05 in 5.0 mi West 11.5 mph - N/A Snow Light Snow
11:34 PM 2.7 °F -13.8 °F -2.4 °F 79% 30.05 in 5.0 mi West 11.5 mph 17.3 mph N/A Snow Light Snow
11:55 PM 1.9 °F -12.9 °F -3.3 °F 79% 30.06 in 10.0 mi West 9.2 mph 16.1 mph N/A   Mostly Cloudy